When you browse on this site, cookies collect data to enhance your experience and personalize the content and advertising you see.
Visit our Privacy Policy to learn more. By continuing to use the site, you agree to this use of cookies and data.

Hourly Weather Podvoste

Today, 8 July, Wednesday

Time Temperature Precipitation Wind Pressure Humidity
00:00 +12°C° 0 mm 3 mps 746 mmHg 91%
01:00 +12°C° 0 mm 3 mps 746 mmHg 88%
02:00 +12°C° 0 mm 4 mps 747 mmHg 85%
03:00 +12°C° 0 mm 3 mps 747 mmHg 87%
04:00 +11°C° 0 mm 3 mps 747 mmHg 89%
05:00 +10°C° 0 mm 3 mps 747 mmHg 92%
06:00 +11°C° 0 mm 3 mps 747 mmHg 85%
07:00 +13°C° 0 mm 4 mps 747 mmHg 78%
08:00 +15°C° 0 mm 4 mps 747 mmHg 71%
09:00 +17°C° 0 mm 4 mps 747 mmHg 66%
10:00 +18°C° 0 mm 4 mps 748 mmHg 62%
11:00 +19°C° 0 mm 5 mps 748 mmHg 58%
12:00 +19°C° 0 mm 5 mps 748 mmHg 56%
13:00 +20°C° 0 mm 4 mps 748 mmHg 54%
14:00 +21°C° 0 mm 4 mps 747 mmHg 53%
15:00 +20°C° 0 mm 4 mps 747 mmHg 55%
16:00 +20°C° 0 mm 4 mps 747 mmHg 57%
17:00 +20°C° 0 mm 4 mps 747 mmHg 59%
18:00 +18°C° 0 mm 4 mps 747 mmHg 67%
19:00 +17°C° 0 mm 3 mps 748 mmHg 74%
20:00 +16°C° 0 mm 3 mps 748 mmHg 81%
21:00 +15°C° 0 mm 2 mps 748 mmHg 85%
22:00 +14°C° 0 mm 2 mps 748 mmHg 90%
23:00 +12°C° 0 mm 2 mps 748 mmHg 94%

Tomorrow, 9 July, Thursday

Time Temperature Precipitation Wind Pressure Humidity
00:00 +12°C° 0 mm 2 mps 748 mmHg 93%
01:00 +12°C° 0 mm 2 mps 748 mmHg 93%
02:00 +12°C° 0 mm 2 mps 749 mmHg 92%
03:00 +13°C° 0 mm 2 mps 749 mmHg 92%
04:00 +13°C° 0 mm 2 mps 749 mmHg 93%
05:00 +13°C° 0 mm 2 mps 749 mmHg 93%
06:00 +14°C° 0.1 mm 2 mps 749 mmHg 88%
07:00 +15°C° 0.1 mm 2 mps 749 mmHg 82%
08:00 +16°C° 0.1 mm 2 mps 750 mmHg 77%
09:00 +17°C° 0.2 mm 2 mps 750 mmHg 74%
10:00 +18°C° 0.2 mm 2 mps 750 mmHg 71%
11:00 +19°C° 0.2 mm 3 mps 750 mmHg 69%
12:00 +19°C° 0.3 mm 3 mps 750 mmHg 66%
13:00 +20°C° 0.3 mm 3 mps 750 mmHg 64%
14:00 +21°C° 0.3 mm 3 mps 750 mmHg 61%
15:00 +21°C° 0.2 mm 3 mps 750 mmHg 62%
16:00 +20°C° 0.2 mm 2 mps 750 mmHg 63%
17:00 +20°C° 0.2 mm 2 mps 750 mmHg 64%
18:00 +19°C° 0 mm 2 mps 750 mmHg 70%
19:00 +19°C° 0 mm 1 mps 750 mmHg 76%
20:00 +16°C° 0 mm 1 mps 750 mmHg 82%
21:00 +15°C° 0 mm 1 mps 750 mmHg 85%
22:00 +14°C° 0 mm 1 mps 751 mmHg 87%
23:00 +14°C° 0 mm 1 mps 751 mmHg 90%

Day after tomorrow, 10 July, Friday

Time Temperature Precipitation Wind Pressure Humidity
00:00 +13°C° 0 mm 1 mps 751 mmHg 91%
01:00 +13°C° 0 mm 1 mps 751 mmHg 92%
02:00 +12°C° 0 mm 1 mps 751 mmHg 93%
03:00 +12°C° 0 mm 1 mps 751 mmHg 94%
04:00 +12°C° 0 mm 1 mps 751 mmHg 94%
05:00 +13°C° 0 mm 1 mps 751 mmHg 95%
06:00 +14°C° 0 mm 2 mps 751 mmHg 89%
07:00 +16°C° 0 mm 2 mps 751 mmHg 84%
08:00 +18°C° 0 mm 2 mps 751 mmHg 79%
09:00 +19°C° 0 mm 3 mps 751 mmHg 74%
10:00 +20°C° 0 mm 3 mps 751 mmHg 70%
11:00 +21°C° 0 mm 3 mps 751 mmHg 65%
12:00 +21°C° 0 mm 3 mps 751 mmHg 66%
13:00 +21°C° 0 mm 3 mps 751 mmHg 67%
14:00 +21°C° 0 mm 3 mps 750 mmHg 67%
15:00 +22°C° 0 mm 3 mps 750 mmHg 65%
16:00 +24°C° 0 mm 3 mps 750 mmHg 63%
17:00 +25°C° 0 mm 3 mps 750 mmHg 61%
18:00 +24°C° 0 mm 3 mps 750 mmHg 67%
19:00 +22°C° 0 mm 3 mps 750 mmHg 74%
20:00 +20°C° 0 mm 3 mps 749 mmHg 80%
21:00 +20°C° 0 mm 3 mps 750 mmHg 81%
22:00 +20°C° 0 mm 4 mps 750 mmHg 82%
23:00 +19°C° 0 mm 4 mps 750 mmHg 82%

11 July, Saturday

Time Temperature Precipitation Wind Pressure Humidity
00:00 +19°C° 0 mm 4 mps 749 mmHg 83%
01:00 +19°C° 0 mm 4 mps 749 mmHg 84%
02:00 +18°C° 0 mm 4 mps 749 mmHg 84%
03:00 +18°C° 0 mm 4 mps 749 mmHg 85%
04:00 +18°C° 0 mm 4 mps 749 mmHg 85%
05:00 +18°C° 0 mm 4 mps 749 mmHg 86%
06:00 +19°C° 0 mm 4 mps 749 mmHg 82%
07:00 +21°C° 0 mm 4 mps 749 mmHg 78%
08:00 +22°C° 0 mm 4 mps 749 mmHg 74%
09:00 +25°C° 0 mm 4 mps 749 mmHg 69%
10:00 +27°C° 0 mm 4 mps 749 mmHg 65%
11:00 +29°C° 0 mm 4 mps 749 mmHg 60%
12:00 +29°C° 0 mm 4 mps 749 mmHg 58%
13:00 +30°C° 0 mm 4 mps 749 mmHg 55%
14:00 +32°C° 0 mm 4 mps 749 mmHg 53%
15:00 +29°C° 0.7 mm 4 mps 749 mmHg 62%
16:00 +28°C° 0.7 mm 4 mps 749 mmHg 70%
17:00 +26°C° 0.7 mm 4 mps 749 mmHg 79%
18:00 +23°C° 0.9 mm 4 mps 749 mmHg 83%
19:00 +21°C° 0.9 mm 4 mps 749 mmHg 87%
20:00 +19°C° 0.9 mm 4 mps 749 mmHg 92%
21:00 +18°C° 0.5 mm 4 mps 749 mmHg 93%
22:00 +18°C° 0.5 mm 3 mps 750 mmHg 94%
23:00 +17°C° 0.5 mm 3 mps 750 mmHg 95%

12 July, Sunday

Time Temperature Precipitation Wind Pressure Humidity
00:00 +16°C° 0.3 mm 3 mps 750 mmHg 94%
01:00 +15°C° 0.3 mm 4 mps 750 mmHg 93%
02:00 +14°C° 0.3 mm 4 mps 749 mmHg 93%
03:00 +13°C° 0.1 mm 4 mps 749 mmHg 93%
04:00 +13°C° 0.1 mm 5 mps 750 mmHg 93%
05:00 +13°C° 0.1 mm 5 mps 750 mmHg 94%
06:00 +12°C° 0.9 mm 5 mps 750 mmHg 94%
07:00 +11°C° 0.9 mm 6 mps 750 mmHg 95%
08:00 +11°C° 0.9 mm 6 mps 751 mmHg 95%
09:00 +11°C° 2.4 mm 6 mps 751 mmHg 95%
10:00 +10°C° 2.4 mm 5 mps 751 mmHg 96%
11:00 +10°C° 2.4 mm 5 mps 751 mmHg 96%
12:00 +12°C° 1.1 mm 4 mps 752 mmHg 94%
13:00 +12°C° 1.1 mm 4 mps 752 mmHg 93%
14:00 +13°C° 1.1 mm 4 mps 752 mmHg 91%
15:00 +14°C° 0.1 mm 3 mps 752 mmHg 86%
16:00 +14°C° 0.1 mm 3 mps 752 mmHg 82%
17:00 +16°C° 0.1 mm 3 mps 752 mmHg 77%
18:00 +15°C° 0 mm 2 mps 752 mmHg 80%
19:00 +15°C° 0 mm 1 mps 752 mmHg 84%
20:00 +14°C° 0 mm 1 mps 752 mmHg 87%
21:00 +13°C° 0 mm 1 mps 752 mmHg 89%
22:00 +12°C° 0 mm 1 mps 752 mmHg 91%
23:00 +12°C° 0 mm 2 mps 752 mmHg 93%

13 July, Monday

Time Temperature Precipitation Wind Pressure Humidity
00:00 +10°C° 0 mm 2 mps 752 mmHg 94%
01:00 +10°C° 0 mm 2 mps 752 mmHg 95%
02:00 +10°C° 0 mm 2 mps 752 mmHg 96%
03:00 +10°C° 0 mm 2 mps 752 mmHg 96%
04:00 +10°C° 0 mm 2 mps 752 mmHg 96%
05:00 +10°C° 0 mm 2 mps 752 mmHg 96%
06:00 +11°C° 0 mm 3 mps 752 mmHg 88%
07:00 +13°C° 0 mm 3 mps 752 mmHg 81%
08:00 +16°C° 0 mm 3 mps 753 mmHg 73%
09:00 +17°C° 0 mm 4 mps 752 mmHg 68%
10:00 +18°C° 0 mm 4 mps 752 mmHg 64%
11:00 +19°C° 0 mm 4 mps 752 mmHg 59%
12:00 +20°C° 0 mm 4 mps 752 mmHg 58%
13:00 +20°C° 0 mm 4 mps 752 mmHg 57%
14:00 +21°C° 0 mm 4 mps 752 mmHg 56%
15:00 +20°C° 0.1 mm 4 mps 751 mmHg 59%
16:00 +20°C° 0.1 mm 4 mps 751 mmHg 62%
17:00 +20°C° 0.1 mm 4 mps 751 mmHg 66%
18:00 +18°C° 0.1 mm 3 mps 751 mmHg 72%
19:00 +17°C° 0.1 mm 2 mps 751 mmHg 79%
20:00 +15°C° 0.1 mm 2 mps 751 mmHg 86%
21:00 +14°C° 0 mm 2 mps 751 mmHg 88%
22:00 +13°C° 0 mm 2 mps 751 mmHg 90%
23:00 +12°C° 0 mm 2 mps 751 mmHg 93%
Show more